TimeCDT,TemperatureF,Dew PointF,Humidity,Sea Level PressureIn,VisibilityMPH,Wind Direction,Wind SpeedMPH,Gust SpeedMPH,PrecipitationIn,Events,Conditions,WindDirDegrees,DateUTC
12:54 AM,37.0,30.0,76,30.12,10.0,Calm,Calm,-,N/A,,Overcast,0,2012-10-22 05:54:00
1:54 AM,33.1,27.0,78,30.12,10.0,Calm,Calm,-,N/A,,Mostly Cloudy,0,2012-10-22 06:54:00
2:54 AM,32.0,26.1,79,30.13,10.0,Calm,Calm,-,N/A,,Partly Cloudy,0,2012-10-22 07:54:00
3:54 AM,36.0,28.9,76,30.13,10.0,Calm,Calm,-,N/A,,Overcast,0,2012-10-22 08:54:00
4:54 AM,35.1,28.9,78,30.14,10.0,Calm,Calm,-,N/A,,Overcast,0,2012-10-22 09:54:00
5:54 AM,34.0,30.0,85,30.14,10.0,Calm,Calm,-,N/A,,Overcast,0,2012-10-22 10:54:00
6:54 AM,35.1,30.9,85,30.14,10.0,Calm,Calm,-,N/A,,Overcast,0,2012-10-22 11:54:00
7:54 AM,36.0,30.0,79,30.14,10.0,ENE,3.5,-,N/A,,Overcast,70,2012-10-22 12:54:00
8:54 AM,36.0,28.9,76,30.14,10.0,ENE,4.6,-,N/A,,Overcast,70,2012-10-22 13:54:00
9:54 AM,37.0,28.0,70,30.16,10.0,NE,4.6,-,N/A,,Overcast,40,2012-10-22 14:54:00
10:54 AM,37.9,28.9,70,30.15,10.0,ENE,6.9,-,N/A,,Overcast,70,2012-10-22 15:54:00
11:54 AM,39.9,30.0,68,30.13,10.0,East,6.9,-,N/A,,Overcast,80,2012-10-22 16:54:00
12:54 PM,39.9,30.0,68,30.12,10.0,East,6.9,-,N/A,,Overcast,90,2012-10-22 17:54:00
1:54 PM,41.0,30.0,65,30.10,10.0,ENE,8.1,-,N/A,,Overcast,70,2012-10-22 18:54:00
2:54 PM,42.1,30.0,62,30.08,10.0,ENE,8.1,-,N/A,,Overcast,60,2012-10-22 19:54:00
3:54 PM,42.1,30.0,62,30.06,10.0,NE,8.1,-,N/A,,Overcast,50,2012-10-22 20:54:00
4:54 PM,43.0,28.9,58,30.04,10.0,NE,6.9,-,N/A,,Overcast,40,2012-10-22 21:54:00
5:54 PM,43.0,30.0,60,30.02,10.0,ENE,10.4,-,N/A,,Overcast,60,2012-10-22 22:54:00
6:54 PM,42.1,30.9,65,30.01,10.0,ENE,9.2,-,N/A,,Overcast,70,2012-10-22 23:54:00
7:54 PM,41.0,32.0,70,29.98,10.0,ENE,10.4,-,N/A,,Overcast,60,2012-10-23 00:54:00
8:54 PM,41.0,32.0,70,29.96,10.0,ENE,8.1,-,N/A,,Overcast,60,2012-10-23 01:54:00
9:54 PM,39.0,33.1,79,29.95,10.0,East,10.4,-,0.00,Rain,Light Rain,80,2012-10-23 02:54:00
10:54 PM,37.0,34.0,89,29.91,10.0,ENE,11.5,-,0.02,Rain,Light Rain,70,2012-10-23 03:54:00
11:54 PM,37.4,35.6,93,29.81,10.0,ENE,13.8,25.3,N/A,,Overcast,70,2012-10-23 04:54:00